Weather History for Buffalo, WY

Change the Weather History Date:

Thursday, April 25, 2013

  Actual Average Record
Temperature  
Mean Temperature 52 °F 46 °F  
Max Temperature 62 °F 57 °F 74 °F (2012)
Min Temperature 41 °F 36 °F 19 °F (2008)
Degree Days  
Heating Degree Days 13 19  
Month to date heating degree days 744 565  
Since 1 July heating degree days 6628 6755  
Cooling Degree Days 0 0  
Month to date cooling degree days 0 0  
Year to date cooling degree days 0 0  
Growing Degree Days 3 (Base 50)    
Moisture  
Dew Point 17 °F    
Average Humidity 29    
Maximum Humidity 45    
Minimum Humidity 12    
Precipitation  
Precipitation 0.00 in 0.05 in 0.27 in (1999)
Month to date precipitation 0.66 0.89  
Year to date precipitation 1.35 2.58  
Sea Level Pressure  
Sea Level Pressure 29.87 in    
Wind  
Wind Speed 8 mph (West)    
Max Wind Speed 24 mph    
Max Gust Speed 31 mph    
Visibility 10 miles    
Events      
T = Trace of Precipitation, MM = Missing Value Source: NWS Daily Summary

Daily Weather History Graph

Daily Weather History Graph

Search for Another Location

Airport:

Trip Planner

Search our weather history database for the weather conditions in past years. The results will help you decide how hot, cold, wet, or windy it might be!

Date:

Astronomy

Apr. 25, 2013 Rise Set
Actual Time 6:06 AM MDT 8:04 PM MDT
Civil Twilight 5:34 AM MDT 8:35 PM MDT
Nautical Twilight 4:56 AM MDT 9:14 PM MDT
Astronomical Twilight 4:14 AM MDT 9:56 PM MDT
Moon 8:21 PM MDT (4/25) 5:51 AM MDT (4/25)
Length of Visible Light 15h 00m
Length of Day
13h 57m
Full, 100% of the Moon is Illuminated
Apr 25
Full
Apr 25
Full
May 2
Last Quarter
May 9
New
May 17
First Quarter

Hourly Weather History & Observations

Time (MDT) Temp. Windchill Dew Point Humidity Pressure Visibility Wind Dir Wind Speed Gust Speed Precip Events Conditions
12:53 AM 45.0 °F 38.2 °F 17.1 °F 33% 29.97 in 10.0 mi WSW 15.0 mph 23.0 mph N/A   Clear
1:53 AM 46.0 °F 39.3 °F 15.1 °F 29% 29.95 in 10.0 mi WSW 16.1 mph 19.6 mph N/A   Clear
2:53 AM 46.9 °F - 14.0 °F 27% 29.93 in 10.0 mi WNW 8.1 mph 20.7 mph N/A   Clear
3:53 AM 44.1 °F 39.0 °F 16.0 °F 32% 29.93 in 10.0 mi WSW 9.2 mph - N/A   Clear
4:53 AM 46.9 °F - 15.1 °F 28% 29.91 in 10.0 mi West 13.8 mph - N/A   Clear
5:53 AM 48.0 °F - 12.9 °F 24% 29.90 in 10.0 mi West 16.1 mph 24.2 mph N/A   Clear
6:53 AM 48.0 °F - 12.9 °F 24% 29.90 in 10.0 mi West 12.7 mph - N/A   Clear
7:53 AM 51.1 °F - 14.0 °F 23% 29.88 in 10.0 mi WNW 11.5 mph - N/A   Clear
8:53 AM 54.0 °F - 15.1 °F 22% 29.88 in 10.0 mi WSW 6.9 mph - N/A   Clear
9:53 AM 55.0 °F - 15.1 °F 21% 29.87 in 10.0 mi SW 5.8 mph - N/A   Clear
10:53 AM 55.9 °F - 14.0 °F 19% 29.88 in 10.0 mi Calm Calm - N/A   Clear
11:53 AM 60.1 °F - 9.0 °F 13% 29.84 in 10.0 mi East 3.5 mph - N/A   Clear
12:53 PM 59.0 °F - 17.1 °F 20% 29.80 in 10.0 mi Variable 4.6 mph - N/A   Clear
1:53 PM 59.0 °F - 15.1 °F 18% 29.79 in 10.0 mi Variable 3.5 mph - N/A   Clear
2:53 PM 61.0 °F - 16.0 °F 17% 29.78 in 10.0 mi West 6.9 mph - N/A   Clear
3:53 PM 62.1 °F - 15.1 °F 16% 29.79 in 10.0 mi North 9.2 mph - N/A   Clear
4:53 PM 61.0 °F - 16.0 °F 17% 29.79 in 10.0 mi NE 8.1 mph - N/A   Clear
5:53 PM 61.0 °F - 16.0 °F 17% 29.79 in 10.0 mi WNW 5.8 mph 16.1 mph N/A   Partly Cloudy
6:53 PM 57.9 °F - 19.0 °F 22% 29.82 in 10.0 mi North 6.9 mph - N/A   Clear
7:53 PM 48.9 °F - 26.1 °F 41% 29.86 in 10.0 mi WNW 6.9 mph - N/A   Scattered Clouds
8:53 PM 45.0 °F 41.2 °F 25.0 °F 46% 29.90 in 10.0 mi WSW 6.9 mph - N/A   Clear
9:53 PM 44.1 °F 38.6 °F 25.0 °F 47% 29.93 in 10.0 mi WSW 10.4 mph - N/A   Clear
10:53 PM 46.9 °F - 21.9 °F 37% 29.93 in 10.0 mi West 10.4 mph - N/A   Clear
11:53 PM 43.0 °F 38.8 °F 21.9 °F 43% 29.94 in 10.0 mi West 6.9 mph - N/A   Clear